Regional Weather Roundup
Issued by NWS

Home | Current Version | Previous Version | Text Only | Print | Product List | Glossary On
Versions: 1 2 3 4 5 6 7 8 9 10 11 12 13 14 15 16 17 18 19 20 21 22 23 24 25 26 27 28 29 30 31 32 33 34 35 36 37 38 39 40 41 42 43 44 45 46 47 48 49 50
000
ASUS44 KMEG 231410
RWRTN
TENNESSEE HOURLY STATE WEATHER ROUNDUP
NATIONAL WEATHER SERVICE MEMPHIS TN
900 AM CDT THU OCT 23 2014

TNZ002-004-019-021-049-052-054-088>092-231500-
WEST TENNESSEE

CITY           SKY/WX    TMP DP  RH WIND       PRES   REMARKS
MEMPHIS INTL   PTSUNNY   52  43  71 E5        30.21S
NWS MEMPHIS      N/A     47 N/A N/A MISG        N/A
JACKSON        SUNNY     48  42  80 E7        30.22R
DYERSBURG      SUNNY     48  36  61 CALM      30.25R
UNION CITY     SUNNY     45  43  93 CALM      30.23R
PARIS          SUNNY     46  39  76 E10       30.22R
HUNTINGDON     SUNNY     47  41  80 E10       30.22
LEXINGTON      SUNNY     45  43  93 NE7       30.20R
SAVANNAH       SUNNY     46  45  93 CALM      30.20R
$$

TNZ008-025-027-028-033-062-065-066-231500-
NORTH MIDDLE TENNESSEE

CITY           SKY/WX    TMP DP  RH WIND       PRES   REMARKS
NASHVILLE      MOSUNNY   49  44  83 NE6       30.23S
CLARKSVILLE    SUNNY     47  42  83 E7        30.23F
SMYRNA         SUNNY     48  43  83 NE6       30.25R
COOKEVILLE     SUNNY     45  41  87 CALM      30.21S
CROSSVILLE     SUNNY     46  40  79 VRB3      30.21R
$$

TNZ061-075-076-078-094-096-097-231500-
SOUTH MIDDLE TENNESSEE

CITY           SKY/WX    TMP DP  RH WIND       PRES   REMARKS
FAYETTEVILLE   SUNNY     45  39  81 NE9       30.18S
TULLAHOMA      SUNNY     45  39  81 NE5       30.20S
WINCHESTER     SUNNY     46  43  87 NE3       30.19F
MCMINNVILLE    SUNNY     43  43 100 CALM      30.21R
COLUMBIA       SUNNY     46  46 100 NE6       30.19S
SHELBYVILLE    SUNNY     48  43  81 VRB6      30.21F
$$

TNZ017-018-042-046-047-231500-
NORTHEAST TENNESSEE

CITY           SKY/WX    TMP DP  RH WIND       PRES   REMARKS
TRI CITIES     CLOUDY    48  38  68 N6        30.22S
ELIZABETHTON   CLOUDY    46  37  71 W3        30.22R
$$

TNZ012-013-036-069-073-074-231500-
CENTRAL EAST TENNESSEE

CITY           SKY/WX    TMP DP  RH WIND       PRES   REMARKS
KNOXVILLE      MOSUNNY   50  43  77 NE15      30.21S
OAK RIDGE      SUNNY     52  41  66 VRB5      30.22F
GATLINBURG     CLOUDY    46  39  76 CALM      30.22S
MORRISTOWN     CLOUDY    48  39  71 E8        30.23S
$$

TNZ083-085-099-231500-
SOUTHEAST TENNESSEE

CITY           SKY/WX    TMP DP  RH WIND       PRES   REMARKS
CHATTANOOGA    SUNNY     53  41  63 N9G20     30.20S
$$

SKY/WX REPORTED AS FAIR MEANS FEW OR NO CLOUDS BELOW
12 THOUSAND FEET.




USA.gov is the U.S. government's official web portal to all federal, state and local government web resources and services.